GFSSE_925_spd_276.txt.gz
Wind_Speed
17 18 19 19 18 18 18 17 16 14 13 13 13 13 11 10 9 9 8 9 9 9 12 10 11 10 10 11 11 12 13 13 12 13 12 12 12 12 12 14 13 13 15
22 20 20 19 17 17 17 16 14 13 13 13 13 11 10 8 7 7 7 7 6 10 12 12 12 10 10 11 12 13 13 12 12 11 11 11 11 10 10 11 12 12 14
23 20 19 20 18 17 16 15 13 12 12 11 11 11 9 7 7 7 7 7 7 9 10 12 11 13 13 13 13 13 13 12 11 11 10 8 7 8 9 10 10 11 12
23 21 19 20 18 17 16 14 13 11 10 10 10 9 9 7 6 5 6 6 7 8 9 10 10 12 13 12 12 12 12 10 9 10 6 6 10 8 8 8 9 9 10
22 20 20 20 18 16 15 12 11 10 10 9 8 8 6 6 6 6 8 7 7 8 8 9 9 10 12 11 11 11 10 8 7 7 5 5 8 6 7 8 7 11 9
22 20 20 19 16 15 13 12 11 9 9 9 8 7 6 5 7 8 8 8 8 7 8 9 8 8 9 9 9 9 9 8 8 5 6 5 5 6 7 6 8 8 8
21 20 19 18 16 14 13 11 10 9 8 9 8 7 6 5 6 7 6 7 7 6 6 7 7 7 7 7 7 8 8 9 6 4 4 4 4 5 7 7 6 6 7
20 19 18 16 15 14 13 11 9 8 7 7 7 7 6 5 5 6 6 5 5 5 5 5 5 5 5 6 7 7 7 5 3 3 5 5 5 6 5 6 5 6 5
18 17 17 15 13 13 12 10 9 8 7 6 6 4 3 3 3 3 3 4 3 2 3 2 2 4 4 7 7 7 6 6 4 3 4 7 7 8 7 8 5 5 6
17 16 16 15 13 12 9 9 8 8 8 7 7 6 5 3 2 2 2 1 1 2 2 3 4 5 6 6 7 7 7 6 7 4 6 7 9 10 9 8 9 8 8
16 16 15 14 13 11 10 9 8 8 7 6 4 5 4 5 3 4 3 4 4 4 5 6 6 7 7 8 9 8 7 9 10 9 7 11 10 12 11 11 10 9 9
18 17 15 14 12 11 9 8 8 8 7 8 9 7 8 6 5 7 6 5 5 6 7 9 9 10 9 12 10 12 10 11 10 12 11 11 12 12 14 13 13 11 11
19 17 16 15 13 12 10 10 10 9 9 8 8 10 7 8 9 7 9 9 10 11 10 10 11 10 12 11 7 12 10 10 13 13 12 14 14 14 16 15 16 15 13
19 18 16 15 14 12 11 10 12 10 9 9 10 9 12 10 10 10 10 8 9 10 10 11 14 13 12 13 13 12 13 14 11 13 14 16 17 18 18 18 19 18 17
18 18 18 17 15 14 14 11 12 11 11 10 8 10 12 12 10 10 12 12 11 11 11 11 13 14 14 14 15 14 13 15 15 15 16 16 17 19 20 20 22 23 20
16 17 17 17 17 16 14 13 12 12 11 13 11 13 13 12 12 12 13 13 13 11 11 11 12 12 13 15 15 15 13 11 13 17 20 19 17 17 20 22 23 25 23
18 16 17 17 16 16 15 13 12 14 12 11 13 17 19 17 15 15 13 13 13 12 12 12 12 14 15 16 17 18 15 13 16 17 18 23 19 19 20 22 23 24 25
16 16 15 14 14 16 15 14 13 12 12 12 12 15 13 13 15 18 17 16 14 14 13 13 12 12 14 18 19 20 14 17 17 21 19 18 19 19 20 17 23 23 23
16 15 15 15 15 14 14 14 13 12 12 12 13 13 16 16 16 19 17 16 14 16 16 16 15 15 15 15 17 20 19 20 21 18 17 16 19 22 20 16 17 23 25
16 16 16 16 16 15 14 14 14 13 12 11 11 12 13 15 17 17 16 17 14 16 17 16 17 16 17 17 15 16 16 22 22 21 19 20 19 21 19 21 15 16 22
17 17 17 17 16 17 16 14 11 11 11 13 13 14 12 17 21 22 20 15 16 15 17 16 16 16 19 17 13 17 14 15 23 21 19 22 21 23 18 15 18 16 16
19 17 17 18 17 18 14 14 12 8 10 11 12 10 7 11 14 14 13 13 14 14 14 15 15 14 15 12 7 11 5 7 10 22 19 24 24 19 21 18 17 16 16
18 19 19 18 17 16 16 14 12 11 13 11 7 7 7 8 9 12 13 13 13 15 15 14 15 13 13 12 12 6 4 3 3 5 12 15 15 18 19 19 20 17 16
18 17 17 15 16 17 19 18 19 18 16 13 8 4 4 9 8 8 9 10 12 14 15 13 12 13 12 14 11 11 15 8 1 3 4 5 6 10 14 16 19 18 17
16 17 13 15 16 15 20 20 19 19 8 7 5 3 4 2 6 4 2 4 9 13 14 14 14 13 14 15 12 9 11 10 10 5 3 2 6 6 5 11 11 13 15
15 14 12 15 15 19 20 22 22 18 11 6 7 5 7 5 3 2 6 6 8 11 13 13 13 12 14 12 12 12 13 8 4 7 6 6 2 5 4 7 8 11 12

GFSSE_925_spd_279.txt.gz
Wind_Speed
20 20 18 18 16 16 15 15 15 14 14 13 12 12 12 10 10 10 10 9 9 9 10 10 10 10 10 10 10 12 13 13 12 13 13 14 14 16 15 13 14 12 13
24 21 20 19 17 15 14 14 14 13 13 12 13 10 10 9 8 8 9 10 8 9 10 10 9 9 10 10 11 11 11 10 10 9 12 14 14 15 13 14 15 12 12
24 21 19 18 16 15 14 13 13 12 12 12 10 9 8 7 7 7 8 10 10 11 12 11 9 10 11 11 12 11 10 10 9 10 15 20 14 13 12 12 12 12 12
23 21 19 18 16 14 14 13 13 12 11 11 9 8 8 6 5 6 6 7 8 10 11 11 10 11 12 11 11 10 9 8 7 6 3 12 16 12 12 11 10 10 11
22 21 21 19 17 14 13 12 12 11 10 10 9 8 6 6 6 6 6 6 8 9 9 11 10 11 12 10 10 9 8 6 5 2 1 14 12 14 12 10 10 10 7
22 23 19 19 16 14 12 11 10 10 9 9 8 6 6 6 8 7 8 7 8 8 8 10 9 9 11 9 9 8 7 6 1 2 1 5 15 14 12 8 9 8 8
24 20 19 18 15 13 11 11 10 8 9 9 8 7 7 9 8 8 7 8 7 7 8 8 7 7 8 7 7 8 7 7 1 2 5 1 10 7 7 8 7 7 7
22 20 18 16 13 12 11 9 9 8 9 9 9 8 8 8 7 6 6 6 6 6 6 7 5 6 7 7 8 8 8 6 4 5 4 4 5 4 6 6 5 6 6
19 20 17 15 13 12 10 9 7 9 8 8 8 7 7 6 6 5 6 5 4 4 5 4 3 5 5 6 6 7 8 7 7 3 6 6 4 6 8 7 6 4 6
17 18 16 16 13 12 9 9 8 7 7 8 8 7 7 5 4 4 3 5 4 4 3 3 3 4 6 6 6 7 6 8 9 8 5 9 6 7 10 10 9 8 7
14 17 16 18 14 12 11 10 7 8 7 7 6 7 5 5 4 3 4 4 4 4 5 5 6 7 8 9 10 10 9 11 13 14 11 12 10 10 11 11 11 11 9
17 16 15 13 16 11 10 9 9 9 7 7 7 7 7 7 3 5 5 6 6 7 7 8 10 11 11 14 15 13 13 15 13 11 8 13 11 12 14 13 14 12 11
18 17 16 13 10 13 11 10 11 11 9 9 9 6 6 6 6 6 8 7 7 8 10 12 14 13 15 16 18 15 13 9 15 11 14 17 15 14 14 16 15 14 13
19 17 17 15 13 11 9 9 7 5 4 8 9 8 8 8 7 7 9 8 9 11 11 10 11 13 13 10 11 11 11 13 11 16 11 16 17 17 18 18 18 18 18
18 17 15 15 14 11 10 8 6 9 10 7 7 9 10 9 9 8 9 11 12 12 12 12 11 13 14 17 17 15 18 13 14 17 14 6 6 15 19 22 21 22 20
16 16 15 15 14 13 12 9 8 9 11 11 6 9 11 9 8 11 10 12 14 14 13 13 11 13 17 17 19 17 16 12 13 16 18 15 11 20 19 24 25 24 24
15 15 14 14 15 14 13 11 9 11 11 10 11 12 14 11 11 12 14 14 15 13 14 13 13 14 16 16 17 16 16 16 20 21 23 23 22 25 24 27 26 24 23
16 14 14 14 14 14 12 13 12 11 12 12 11 12 10 12 16 15 17 17 16 18 14 15 13 13 14 16 16 19 17 16 17 18 21 22 23 24 26 20 26 29 23
15 16 14 13 12 12 15 14 12 11 12 12 11 12 12 14 13 13 13 15 16 18 15 16 17 15 13 14 16 16 16 18 21 21 22 22 21 24 22 21 19 30 28
19 15 15 15 15 15 14 14 15 15 15 14 13 13 13 13 16 19 16 13 13 14 14 15 14 16 12 14 16 17 18 19 19 25 26 24 24 25 22 23 26 21 31
16 19 17 16 15 16 16 15 15 16 15 17 16 12 11 14 17 19 18 14 13 14 14 13 13 13 16 15 12 13 14 20 19 19 21 25 23 22 24 24 28 28 29
21 18 18 17 17 17 16 17 17 13 11 12 11 12 15 16 17 16 14 10 12 12 13 13 12 11 12 10 7 3 3 3 7 12 17 22 23 23 21 23 15 27 13
22 22 20 20 18 19 18 16 14 13 13 12 11 11 14 14 14 14 13 11 10 12 13 13 11 12 13 8 8 6 2 2 4 5 7 12 21 19 22 20 24 25 12
22 22 23 20 19 19 19 18 15 15 13 13 11 8 7 10 15 12 11 9 9 11 12 12 11 11 10 12 5 8 9 6 3 3 2 4 6 9 13 17 18 22 17
22 23 22 21 19 18 19 19 16 17 14 9 7 3 7 9 9 6 5 7 7 8 8 8 8 10 10 11 9 7 6 9 12 6 3 2 6 6 7 9 17 20 13
21 21 20 18 17 18 18 18 18 10 8 5 4 6 7 6 4 2 3 6 8 9 9 8 7 8 11 9 8 8 10 8 5 5 5 3 3 5 7 10 8 11 18

GFSSE_925_spd_285.txt.gz
Wind_Speed
18 20 19 18 19 19 19 19 17 18 18 17 16 15 16 16 16 14 13 13 13 11 10 10 10 10 10 14 14 14 14 15 13 15 14 13 13 17 19 18 16 17 17
24 24 21 21 20 19 19 18 17 17 16 16 14 13 13 13 12 11 11 11 11 10 9 9 9 8 9 11 12 13 13 13 15 14 15 14 9 10 13 12 15 17 17
26 26 22 21 20 18 18 16 16 15 15 14 13 12 11 11 11 10 11 11 11 10 9 8 8 7 7 9 9 10 12 12 13 12 14 14 13 9 14 14 15 16 16
27 25 24 21 19 19 18 17 16 14 13 12 12 11 11 11 11 10 11 11 11 11 10 8 9 8 7 8 8 8 9 8 8 11 14 11 12 9 10 13 14 15 14
28 24 24 22 20 18 17 17 16 15 14 13 12 11 10 10 10 10 10 11 11 10 10 9 9 9 7 6 6 9 9 6 6 6 4 12 12 10 9 12 13 14 14
31 25 24 22 19 18 17 16 15 14 13 12 11 11 10 10 11 11 11 11 10 10 9 8 9 10 7 6 6 6 9 4 1 2 7 6 10 11 10 11 13 13 13
34 28 25 22 20 17 15 15 14 13 12 11 10 10 11 11 12 11 11 10 11 9 9 8 8 9 8 6 5 4 7 8 1 8 7 8 13 14 11 12 13 13 13
34 30 25 22 18 17 14 13 13 13 12 11 10 11 11 11 12 12 12 11 11 10 9 8 7 8 7 6 4 4 6 5 1 13 16 10 11 14 14 13 13 13 11
32 31 26 21 17 15 14 11 11 11 12 12 10 11 11 10 10 10 11 11 10 10 10 9 8 9 8 8 7 6 7 4 3 16 8 11 13 15 15 13 13 13 13
28 27 24 20 19 16 13 12 11 11 11 10 10 10 9 9 9 9 8 8 8 10 8 8 7 7 7 8 8 8 9 9 7 9 12 13 18 16 17 14 13 12 13
29 24 22 20 20 16 13 13 11 9 8 8 8 9 9 8 9 7 6 6 8 7 8 8 8 8 9 9 9 10 10 9 10 9 11 13 18 16 15 15 14 12 12
31 29 27 21 21 21 16 14 14 12 12 10 10 10 9 7 6 9 9 8 8 7 7 9 9 9 10 11 10 11 12 11 12 10 11 15 15 17 17 16 16 14 11
33 31 33 24 23 28 21 17 15 13 11 11 12 11 10 9 7 9 9 8 7 9 8 9 10 10 11 14 14 18 16 15 21 12 8 20 20 21 14 12 12 15 13
22 35 34 26 25 28 23 18 17 17 10 17 14 14 13 12 12 10 11 11 12 10 10 7 11 14 14 16 14 11 21 20 16 18 13 19 17 23 18 15 14 13 13
26 33 29 29 25 20 22 15 22 20 17 10 21 20 19 13 14 10 9 10 10 10 9 6 8 6 8 14 13 14 18 19 20 12 15 16 22 24 20 12 16 17 17
28 29 27 31 22 17 16 9 14 15 9 13 18 21 18 13 9 10 12 12 13 12 12 13 11 11 10 11 10 15 18 17 15 13 15 15 17 21 23 23 21 23 20
29 29 30 25 21 20 14 10 11 11 11 11 18 16 16 20 15 13 12 14 14 15 16 14 13 13 12 12 15 15 13 20 19 22 25 18 19 23 21 19 20 25 23
28 27 30 22 20 16 18 13 9 8 11 17 16 16 19 18 20 17 17 17 15 17 18 18 16 15 14 13 12 13 14 14 16 14 22 20 24 25 25 23 21 23 24
27 28 28 24 22 19 16 16 13 14 15 15 16 14 20 20 16 13 16 14 11 11 14 16 15 12 14 16 14 17 17 14 12 15 22 23 23 26 24 23 20 23 24
28 29 26 20 24 21 18 16 15 13 13 15 18 18 20 22 17 13 12 14 14 14 16 14 15 14 16 16 17 19 20 20 18 20 23 23 22 24 29 29 24 25 24
34 30 26 23 16 24 22 21 18 17 15 17 19 14 9 19 14 13 16 17 17 15 16 15 15 13 14 13 13 15 23 23 22 22 22 25 24 24 24 25 24 21 21
35 33 29 26 24 24 22 20 15 13 11 5 11 13 12 12 12 12 12 10 13 16 14 15 12 12 12 9 7 5 3 3 4 5 10 16 17 17 19 17 23 23 24
33 36 34 30 26 27 23 18 17 17 15 14 8 11 10 10 9 9 9 10 11 14 16 11 13 11 13 7 15 7 2 2 3 4 5 8 8 9 14 19 22 21 23
32 36 37 34 29 26 24 20 20 19 14 11 12 13 6 4 6 10 11 9 15 16 14 11 10 11 7 10 10 14 16 5 1 3 4 6 6 6 6 6 8 19 24
32 35 37 36 31 29 27 24 21 14 13 10 9 8 3 1 4 6 4 1 6 8 10 10 7 7 7 10 10 8 7 7 7 4 3 4 7 5 7 6 4 5 16
29 34 37 38 37 32 26 25 21 12 14 9 12 7 2 0 2 3 0 2 6 6 7 6 5 7 6 5 3 4 6 2 2 4 3 4 3 4 7 5 5 2 8

GFSSE_925_spd_291.txt.gz
Wind_Speed
19 17 16 19 19 19 20 19 18 19 19 22 23 24 23 21 21 21 19 18 15 14 12 12 11 11 10 11 12 13 12 11 12 12 11 12 13 12 13 12 12 13 14
25 21 18 20 19 19 18 18 17 17 17 17 18 19 19 19 17 17 17 16 16 13 12 12 11 11 11 11 10 11 10 11 11 11 11 11 11 12 10 11 11 11 12
25 22 21 20 19 18 17 17 16 15 15 15 15 15 15 15 14 14 14 14 13 13 12 12 11 11 11 10 9 9 7 10 9 11 11 11 10 10 11 11 12 11 12
25 23 22 20 19 17 17 16 15 14 14 13 13 13 13 12 12 12 12 12 12 11 10 11 10 10 11 11 10 10 9 8 8 11 11 12 10 9 10 11 11 11 10
25 24 23 20 19 17 16 15 14 13 12 11 11 12 13 12 11 10 10 10 10 10 9 10 10 9 9 10 9 9 9 9 8 8 11 9 12 11 9 9 9 10 12
27 25 21 19 18 17 16 16 14 12 12 11 11 11 10 10 9 10 10 9 9 9 9 10 10 10 10 9 9 8 8 8 7 7 10 9 10 10 10 10 9 9 9
27 24 21 18 17 15 14 14 14 13 12 11 10 10 10 10 8 9 8 9 9 9 8 8 10 9 9 9 8 8 7 7 5 4 9 9 11 12 11 11 11 9 9
28 24 21 18 16 15 15 14 14 14 13 12 11 11 11 11 10 8 8 7 9 9 8 9 9 10 9 9 9 8 8 7 5 6 8 11 11 11 11 11 10 12 11
27 25 22 19 17 16 16 15 14 13 12 10 12 11 11 10 9 8 7 8 8 8 8 8 9 10 10 10 9 10 9 9 5 8 10 9 10 12 11 11 11 12 11
24 25 23 21 18 17 16 15 14 14 12 11 10 11 10 10 9 8 9 8 7 7 8 8 8 8 9 10 10 10 12 11 8 6 16 11 11 13 13 12 12 12 12
23 24 24 23 21 19 16 16 15 13 13 11 10 10 10 10 9 10 10 8 8 9 9 9 9 9 9 10 10 10 11 14 11 9 13 10 12 14 14 15 14 13 13
23 27 26 24 23 20 17 16 17 16 14 14 14 13 12 12 12 11 9 9 10 10 11 11 11 11 10 12 12 11 13 14 15 14 13 12 13 16 17 18 16 15 15
32 29 28 25 23 21 20 19 17 16 14 14 14 13 13 12 12 13 12 12 11 11 12 13 12 13 14 13 13 13 14 15 17 18 18 17 17 17 21 20 19 17 17
29 32 30 27 25 23 20 19 17 17 15 16 15 15 15 15 14 15 13 14 14 13 15 14 15 15 15 16 16 17 16 17 19 19 20 18 20 22 23 19 18 19 18
29 33 31 29 27 24 22 20 19 19 18 15 16 15 16 17 16 15 15 16 17 17 17 17 15 15 14 16 19 21 18 19 20 22 26 22 23 21 23 23 25 23 20
30 33 31 30 29 27 25 21 20 21 19 18 15 19 19 19 18 19 19 18 18 20 15 16 13 13 13 15 16 17 21 20 21 21 23 20 23 20 27 26 27 26 24
33 33 34 32 28 28 27 24 22 21 20 21 19 17 22 21 20 17 18 20 18 15 12 14 15 16 17 16 17 17 18 20 22 22 20 20 24 27 30 30 32 28 25
30 33 34 32 30 29 28 25 24 24 22 21 20 19 21 22 24 24 21 19 18 17 16 15 13 16 17 16 18 17 17 17 16 19 20 22 23 25 32 27 31 30 27
37 35 34 33 31 31 30 27 24 20 21 21 21 20 21 21 23 25 21 17 19 18 17 13 11 9 12 14 14 17 19 19 18 17 17 17 20 25 31 31 27 30 30
37 37 35 35 32 29 28 28 22 19 20 18 18 18 20 21 23 22 23 19 18 20 18 14 12 10 12 14 14 18 19 21 22 22 21 19 19 22 26 27 31 27 32
34 35 35 35 35 33 30 27 24 23 20 19 17 17 17 19 21 20 22 24 17 16 16 11 7 8 10 5 10 12 13 14 17 20 19 19 20 21 21 25 30 28 30
38 39 37 37 37 36 34 29 25 22 16 16 15 15 14 9 9 11 13 14 12 8 10 4 5 7 7 11 3 2 3 3 3 4 4 6 9 11 13 13 18 21 23
32 37 41 40 39 37 34 28 22 16 16 11 13 12 7 6 3 5 7 7 5 8 7 5 5 4 6 7 7 5 2 2 4 3 6 6 7 8 7 9 11 14 17
35 41 44 41 41 37 33 31 28 23 20 17 11 6 7 3 1 4 5 3 3 3 4 6 4 5 7 10 6 11 15 6 1 3 3 8 7 11 12 10 11 11 12
31 37 41 41 40 37 34 34 31 28 20 14 10 7 8 5 1 4 6 7 4 1 3 3 4 3 3 7 7 5 3 5 7 4 3 5 15 6 9 9 11 11 13
30 30 34 38 42 38 34 34 32 29 19 14 8 9 9 6 5 5 4 4 4 3 3 2 1 2 2 1 1 1 2 1 0 3 1 3 6 9 11 9 8 9 11